Time,TemperatureF,DewpointF,PressureIn,WindDirection,WindDirectionDegrees,WindSpeedMPH,WindSpeedGustMPH,Humidity,HourlyPrecipIn,Conditions,Clouds,dailyrainin,SoftwareType,DateUTC
2013-03-07 00:00:00,40.0,28.8,30.21,ENE,59,0.0,0.0,64,0.00,,---,0.00,VWS V14.00,2013-03-07 06:00:00,
2013-03-07 00:01:00,39.3,28.5,30.21,ENE,59,4.0,4.0,65,0.00,,---,0.00,VWS V14.00,2013-03-07 06:01:00,
2013-03-07 00:05:00,39.9,28.7,30.21,ENE,59,0.0,0.0,64,0.00,,---,0.00,VWS V14.00,2013-03-07 06:05:00,
2013-03-07 00:06:00,39.3,28.5,30.20,ENE,59,3.0,3.0,65,0.00,,---,0.00,VWS V14.00,2013-03-07 06:06:00,
2013-03-07 00:10:00,39.8,29.0,30.21,ENE,59,0.0,0.0,65,0.00,,---,0.00,VWS V14.00,2013-03-07 06:10:00,
2013-03-07 00:11:00,39.4,28.6,30.20,ENE,59,3.0,4.0,65,0.00,,---,0.00,VWS V14.00,2013-03-07 06:11:00,
2013-03-07 00:15:00,39.8,28.6,30.22,ENE,59,0.0,0.0,64,0.00,,---,0.00,VWS V14.00,2013-03-07 06:15:00,
2013-03-07 00:16:00,39.6,28.4,30.20,ENE,59,4.0,4.0,64,0.00,,---,0.00,VWS V14.00,2013-03-07 06:16:00,
2013-03-07 00:20:00,39.6,28.4,30.22,ENE,59,0.0,0.0,64,0.00,,---,0.00,VWS V14.00,2013-03-07 06:20:00,
2013-03-07 00:21:00,39.8,28.2,30.20,ENE,59,3.0,4.0,63,0.00,,---,0.00,VWS V14.00,2013-03-07 06:21:00,
2013-03-07 00:25:00,39.6,28.4,30.22,ENE,59,0.0,0.0,64,0.00,,---,0.00,VWS V14.00,2013-03-07 06:25:00,
2013-03-07 00:26:00,40.0,28.0,30.20,ENE,59,2.0,3.0,62,0.00,,---,0.00,VWS V14.00,2013-03-07 06:26:00,
2013-03-07 00:30:00,39.5,28.4,30.22,ENE,59,0.0,0.0,64,0.00,,---,0.00,VWS V14.00,2013-03-07 06:30:00,
2013-03-07 00:31:00,40.1,27.8,30.21,ENE,59,0.0,2.0,61,0.00,,---,0.00,VWS V14.00,2013-03-07 06:31:00,
2013-03-07 00:35:00,39.4,28.2,30.22,ENE,59,1.0,3.0,64,0.00,,---,0.00,VWS V14.00,2013-03-07 06:35:00,
2013-03-07 00:36:00,40.1,28.1,30.20,ENE,59,2.0,2.0,62,0.00,,---,0.00,VWS V14.00,2013-03-07 06:36:00,
2013-03-07 00:40:00,39.2,28.4,30.22,ENE,59,1.0,3.0,65,0.00,,---,0.00,VWS V14.00,2013-03-07 06:40:00,
2013-03-07 00:41:00,40.1,28.1,30.20,ENE,59,1.0,2.0,62,0.00,,---,0.00,VWS V14.00,2013-03-07 06:41:00,
2013-03-07 00:45:00,38.9,28.1,30.22,ENE,59,0.0,1.0,65,0.00,,---,0.00,VWS V14.00,2013-03-07 06:45:00,
2013-03-07 00:46:00,40.1,28.5,30.21,ENE,59,0.0,0.0,63,0.00,,---,0.00,VWS V14.00,2013-03-07 06:46:00,
2013-03-07 00:50:00,38.7,28.3,30.22,ENE,59,0.0,0.0,66,0.00,,---,0.00,VWS V14.00,2013-03-07 06:50:00,
2013-03-07 00:51:00,40.1,28.9,30.21,ENE,59,0.0,0.0,64,0.00,,---,0.00,VWS V14.00,2013-03-07 06:51:00,
2013-03-07 00:55:00,38.5,28.1,30.23,ENE,59,0.0,0.0,66,0.00,,---,0.00,VWS V14.00,2013-03-07 06:55:00,
2013-03-07 00:56:00,40.1,28.9,30.21,ENE,59,0.0,0.0,64,0.00,,---,0.00,VWS V14.00,2013-03-07 06:56:00,
2013-03-07 01:00:00,38.3,28.0,30.23,ENE,59,0.0,0.0,66,0.00,,---,0.00,VWS V14.00,2013-03-07 07:00:00,
2013-03-07 01:01:00,40.0,28.8,30.21,ENE,59,0.0,0.0,64,0.00,,---,0.00,VWS V14.00,2013-03-07 07:01:00,
2013-03-07 01:05:00,38.3,27.6,30.23,ENE,59,0.0,0.0,65,0.00,,---,0.00,VWS V14.00,2013-03-07 07:05:00,
2013-03-07 01:06:00,39.9,28.7,30.21,ENE,59,0.0,0.0,64,0.00,,---,0.00,VWS V14.00,2013-03-07 07:06:00,
2013-03-07 01:10:00,38.2,27.9,30.23,ENE,59,0.0,0.0,66,0.00,,---,0.00,VWS V14.00,2013-03-07 07:10:00,
2013-03-07 01:11:00,39.8,29.0,30.22,ENE,59,0.0,0.0,65,0.00,,---,0.00,VWS V14.00,2013-03-07 07:11:00,
2013-03-07 01:15:00,38.0,28.0,30.23,ENE,59,0.0,0.0,67,0.00,,---,0.00,VWS V14.00,2013-03-07 07:15:00,
2013-03-07 01:16:00,39.7,28.5,30.22,ENE,59,0.0,0.0,64,0.00,,---,0.00,VWS V14.00,2013-03-07 07:16:00,
2013-03-07 01:20:00,37.7,27.8,30.22,ENE,59,0.0,0.0,67,0.00,,---,0.00,VWS V14.00,2013-03-07 07:20:00,
2013-03-07 01:21:00,39.6,28.4,30.22,ENE,59,0.0,0.0,64,0.00,,---,0.00,VWS V14.00,2013-03-07 07:21:00,
2013-03-07 01:25:00,37.5,27.6,30.22,ENE,59,0.0,0.0,67,0.00,,---,0.00,VWS V14.00,2013-03-07 07:25:00,
2013-03-07 01:26:00,39.6,28.4,30.22,ENE,59,0.0,0.0,64,0.00,,---,0.00,VWS V14.00,2013-03-07 07:26:00,
2013-03-07 01:30:00,37.6,27.3,30.22,ENE,59,4.0,4.0,66,0.00,,---,0.00,VWS V14.00,2013-03-07 07:30:00,
2013-03-07 01:31:00,39.5,28.4,30.22,ENE,59,0.0,0.0,64,0.00,,---,0.00,VWS V14.00,2013-03-07 07:31:00,
2013-03-07 01:35:00,37.2,27.3,30.22,ENE,59,5.0,5.0,67,0.00,,---,0.00,VWS V14.00,2013-03-07 07:35:00,
2013-03-07 01:36:00,39.3,28.5,30.22,ENE,59,2.0,3.0,65,0.00,,---,0.00,VWS V14.00,2013-03-07 07:36:00,
2013-03-07 01:40:00,36.4,26.9,30.21,ENE,59,4.0,5.0,68,0.00,,---,0.00,VWS V14.00,2013-03-07 07:40:00,
2013-03-07 01:41:00,39.1,28.3,30.22,ENE,59,0.0,1.0,65,0.00,,---,0.00,VWS V14.00,2013-03-07 07:41:00,
2013-03-07 01:45:00,35.7,26.9,30.21,ENE,59,3.0,5.0,70,0.00,,---,0.00,VWS V14.00,2013-03-07 07:45:00,
2013-03-07 01:46:00,38.8,28.4,30.22,ENE,59,0.0,0.0,66,0.00,,---,0.00,VWS V14.00,2013-03-07 07:46:00,
2013-03-07 01:50:00,35.7,27.2,30.21,ENE,59,3.0,3.0,71,0.00,,---,0.00,VWS V14.00,2013-03-07 07:50:00,
2013-03-07 01:51:00,38.5,28.1,30.23,ENE,59,0.0,0.0,66,0.00,,---,0.00,VWS V14.00,2013-03-07 07:51:00,
2013-03-07 01:55:00,35.5,26.7,30.20,ENE,59,4.0,5.0,70,0.00,,---,0.00,VWS V14.00,2013-03-07 07:55:00,
2013-03-07 01:56:00,38.4,28.0,30.23,ENE,59,0.0,0.0,66,0.00,,---,0.00,VWS V14.00,2013-03-07 07:56:00,
2013-03-07 02:00:00,35.1,26.7,30.20,ENE,59,4.0,4.0,71,0.00,,---,0.00,VWS V14.00,2013-03-07 08:00:00,
2013-03-07 02:01:00,38.3,28.0,30.23,ENE,59,0.0,0.0,66,0.00,,---,0.00,VWS V14.00,2013-03-07 08:01:00,
2013-03-07 02:05:00,34.8,26.7,30.20,ENE,59,3.0,5.0,72,0.00,,---,0.00,VWS V14.00,2013-03-07 08:05:00,
2013-03-07 02:06:00,38.3,27.6,30.23,ENE,59,0.0,0.0,65,0.00,,---,0.00,VWS V14.00,2013-03-07 08:06:00,
2013-03-07 02:10:00,34.5,26.8,30.20,ENE,59,4.0,5.0,73,0.00,,---,0.00,VWS V14.00,2013-03-07 08:10:00,
2013-03-07 02:11:00,38.2,27.9,30.23,ENE,59,0.0,0.0,66,0.00,,---,0.00,VWS V14.00,2013-03-07 08:11:00,
2013-03-07 02:15:00,34.4,26.7,30.20,ENE,59,3.0,4.0,73,0.00,,---,0.00,VWS V14.00,2013-03-07 08:15:00,
2013-03-07 02:16:00,37.9,27.9,30.23,ENE,59,0.0,0.0,67,0.00,,---,0.00,VWS V14.00,2013-03-07 08:16:00,
2013-03-07 02:20:00,34.1,26.4,30.20,ENE,59,4.0,5.0,73,0.00,,---,0.00,VWS V14.00,2013-03-07 08:20:00,
2013-03-07 02:21:00,37.7,27.8,30.22,ENE,59,0.0,0.0,67,0.00,,---,0.00,VWS V14.00,2013-03-07 08:21:00,
2013-03-07 02:25:00,34.1,26.7,30.20,ENE,59,3.0,4.0,74,0.00,,---,0.00,VWS V14.00,2013-03-07 08:25:00,
2013-03-07 02:26:00,37.6,27.6,30.22,ENE,59,0.0,0.0,67,0.00,,---,0.00,VWS V14.00,2013-03-07 08:26:00,
2013-03-07 02:30:00,34.4,26.7,30.20,ENE,59,4.0,4.0,73,0.00,,---,0.00,VWS V14.00,2013-03-07 08:30:00,
2013-03-07 02:31:00,37.5,27.2,30.22,ENE,59,4.0,5.0,66,0.00,,---,0.00,VWS V14.00,2013-03-07 08:31:00,
2013-03-07 02:35:00,34.4,26.3,30.19,ENE,59,0.0,4.0,72,0.00,,---,0.00,VWS V14.00,2013-03-07 08:35:00,
2013-03-07 02:36:00,36.9,27.0,30.21,ENE,59,4.0,5.0,67,0.00,,---,0.00,VWS V14.00,2013-03-07 08:36:00,
2013-03-07 02:40:00,34.4,26.3,30.20,ENE,59,0.0,0.0,72,0.00,,---,0.00,VWS V14.00,2013-03-07 08:40:00,
2013-03-07 02:41:00,36.1,26.6,30.21,ENE,59,4.0,5.0,68,0.00,,---,0.00,VWS V14.00,2013-03-07 08:41:00,
2013-03-07 02:45:00,34.3,26.2,30.20,ENE,59,0.0,1.0,72,0.00,,---,0.00,VWS V14.00,2013-03-07 08:45:00,
2013-03-07 02:46:00,35.7,26.9,30.21,ENE,59,2.0,3.0,70,0.00,,---,0.00,VWS V14.00,2013-03-07 08:46:00,
2013-03-07 02:50:00,34.2,26.1,30.19,ENE,59,0.0,0.0,72,0.00,,---,0.00,VWS V14.00,2013-03-07 08:50:00,
2013-03-07 02:51:00,35.7,26.9,30.20,ENE,59,4.0,4.0,70,0.00,,---,0.00,VWS V14.00,2013-03-07 08:51:00,
2013-03-07 02:55:00,34.3,26.2,30.19,ENE,59,3.0,4.0,72,0.00,,---,0.00,VWS V14.00,2013-03-07 08:55:00,
2013-03-07 02:56:00,35.3,26.5,30.21,ENE,59,3.0,4.0,70,0.00,,---,0.00,VWS V14.00,2013-03-07 08:56:00,
2013-03-07 03:00:00,35.0,26.9,30.19,East,95,6.0,11.0,72,0.00,,---,0.00,VWS V14.00,2013-03-07 09:00:00,
2013-03-07 03:01:00,35.0,26.9,30.20,ENE,59,4.0,4.0,72,0.00,,---,0.00,VWS V14.00,2013-03-07 09:01:00,
2013-03-07 03:05:00,36.1,27.3,30.19,ESE,105,5.0,10.0,70,0.00,,---,0.00,VWS V14.00,2013-03-07 09:05:00,
2013-03-07 03:06:00,34.7,26.6,30.20,ENE,59,3.0,5.0,72,0.00,,---,0.00,VWS V14.00,2013-03-07 09:06:00,
2013-03-07 03:10:00,37.0,27.4,30.19,ESE,107,6.0,10.0,68,0.00,,---,0.00,VWS V14.00,2013-03-07 09:10:00,
2013-03-07 03:11:00,34.4,26.7,30.20,ENE,59,4.0,4.0,73,0.00,,---,0.00,VWS V14.00,2013-03-07 09:11:00,
2013-03-07 03:15:00,37.5,27.2,30.18,ESE,111,10.0,10.0,66,0.00,,---,0.00,VWS V14.00,2013-03-07 09:15:00,
2013-03-07 03:16:00,34.3,26.6,30.20,ENE,59,5.0,5.0,73,0.00,,---,0.00,VWS V14.00,2013-03-07 09:16:00,
2013-03-07 03:20:00,37.8,27.1,30.18,ESE,115,5.0,10.0,65,0.00,,---,0.00,VWS V14.00,2013-03-07 09:20:00,
2013-03-07 03:21:00,34.0,26.3,30.20,ENE,59,4.0,4.0,73,0.00,,---,0.00,VWS V14.00,2013-03-07 09:21:00,
2013-03-07 03:25:00,38.1,27.0,30.19,ESE,111,6.0,10.0,64,0.00,,---,0.00,VWS V14.00,2013-03-07 09:25:00,
2013-03-07 03:26:00,34.2,26.5,30.20,ENE,59,4.0,4.0,73,0.00,,---,0.00,VWS V14.00,2013-03-07 09:26:00,
2013-03-07 03:30:00,38.3,26.8,30.18,ESE,109,10.0,11.0,63,0.00,,---,0.00,VWS V14.00,2013-03-07 09:30:00,
2013-03-07 03:31:00,34.4,26.7,30.20,ENE,59,1.0,4.0,73,0.00,,---,0.00,VWS V14.00,2013-03-07 09:31:00,
2013-03-07 03:35:00,38.3,26.8,30.18,ESE,109,7.0,11.0,63,0.00,,---,0.00,VWS V14.00,2013-03-07 09:35:00,
2013-03-07 03:36:00,34.4,26.3,30.20,ENE,59,0.0,0.0,72,0.00,,---,0.00,VWS V14.00,2013-03-07 09:36:00,
2013-03-07 03:40:00,38.3,26.8,30.18,ESE,110,6.0,9.0,63,0.00,,---,0.00,VWS V14.00,2013-03-07 09:40:00,
2013-03-07 03:41:00,34.3,26.2,30.20,ENE,59,0.0,0.0,72,0.00,,---,0.00,VWS V14.00,2013-03-07 09:41:00,
2013-03-07 03:45:00,38.2,26.7,30.18,ESE,112,6.0,10.0,63,0.00,,---,0.00,VWS V14.00,2013-03-07 09:45:00,
2013-03-07 03:46:00,34.3,26.2,30.19,ENE,59,0.0,0.0,72,0.00,,---,0.00,VWS V14.00,2013-03-07 09:46:00,
2013-03-07 03:50:00,38.0,26.5,30.18,ESE,111,5.0,10.0,63,0.00,,---,0.00,VWS V14.00,2013-03-07 09:50:00,
2013-03-07 03:51:00,34.3,26.2,30.19,ENE,59,0.0,0.0,72,0.00,,---,0.00,VWS V14.00,2013-03-07 09:51:00,
2013-03-07 03:55:00,37.9,26.4,30.18,ESE,111,6.0,9.0,63,0.00,,---,0.00,VWS V14.00,2013-03-07 09:55:00,
2013-03-07 03:56:00,34.4,26.3,30.19,East,88,9.0,11.0,72,0.00,,---,0.00,VWS V14.00,2013-03-07 09:56:00,
2013-03-07 04:00:00,37.8,26.4,30.19,ESE,111,5.0,7.0,63,0.00,,---,0.00,VWS V14.00,2013-03-07 10:00:00,
2013-03-07 04:01:00,35.5,27.0,30.19,ESE,103,7.0,10.0,71,0.00,,---,0.00,VWS V14.00,2013-03-07 10:01:00,
2013-03-07 04:05:00,37.8,26.7,30.18,ESE,111,4.0,6.0,64,0.00,,---,0.00,VWS V14.00,2013-03-07 10:05:00,
2013-03-07 04:06:00,36.5,27.3,30.19,ESE,107,6.0,10.0,69,0.00,,---,0.00,VWS V14.00,2013-03-07 10:06:00,
2013-03-07 04:10:00,37.7,26.6,30.19,ESE,111,4.0,5.0,64,0.00,,---,0.00,VWS V14.00,2013-03-07 10:10:00,
2013-03-07 04:11:00,37.2,27.3,30.19,ESE,110,6.0,10.0,67,0.00,,---,0.00,VWS V14.00,2013-03-07 10:11:00,
2013-03-07 04:15:00,37.6,26.5,30.19,ESE,111,2.0,5.0,64,0.00,,---,0.00,VWS V14.00,2013-03-07 10:15:00,
2013-03-07 04:16:00,37.6,26.9,30.18,ESE,116,8.0,10.0,65,0.00,,---,0.00,VWS V14.00,2013-03-07 10:16:00,
2013-03-07 04:20:00,37.6,26.5,30.18,ESE,111,5.0,7.0,64,0.00,,---,0.00,VWS V14.00,2013-03-07 10:20:00,
2013-03-07 04:21:00,38.0,26.9,30.18,ESE,113,4.0,10.0,64,0.00,,---,0.00,VWS V14.00,2013-03-07 10:21:00,
2013-03-07 04:25:00,37.5,26.5,30.18,ESE,111,5.0,7.0,64,0.00,,---,0.00,VWS V14.00,2013-03-07 10:25:00,
2013-03-07 04:26:00,38.2,27.1,30.19,ESE,108,7.0,10.0,64,0.00,,---,0.00,VWS V14.00,2013-03-07 10:26:00,
2013-03-07 04:30:00,37.6,26.5,30.18,ESE,112,6.0,9.0,64,0.00,,---,0.00,VWS V14.00,2013-03-07 10:30:00,
2013-03-07 04:31:00,38.3,26.8,30.18,ESE,108,7.0,10.0,63,0.00,,---,0.00,VWS V14.00,2013-03-07 10:31:00,
2013-03-07 04:35:00,37.7,26.6,30.18,ESE,115,8.0,10.0,64,0.00,,---,0.00,VWS V14.00,2013-03-07 10:35:00,
2013-03-07 04:36:00,38.4,26.9,30.18,ESE,109,6.0,9.0,63,0.00,,---,0.00,VWS V14.00,2013-03-07 10:36:00,
2013-03-07 04:40:00,37.8,26.7,30.18,ESE,117,9.0,11.0,64,0.00,,---,0.00,VWS V14.00,2013-03-07 10:40:00,
2013-03-07 04:41:00,38.3,26.8,30.18,ESE,112,6.0,10.0,63,0.00,,---,0.00,VWS V14.00,2013-03-07 10:41:00,
2013-03-07 04:45:00,37.9,26.8,30.18,ESE,118,8.0,11.0,64,0.00,,---,0.00,VWS V14.00,2013-03-07 10:45:00,
2013-03-07 04:46:00,38.1,26.6,30.18,ESE,112,6.0,9.0,63,0.00,,---,0.00,VWS V14.00,2013-03-07 10:46:00,
2013-03-07 04:50:00,37.8,26.7,30.18,ESE,119,6.0,11.0,64,0.00,,---,0.00,VWS V14.00,2013-03-07 10:50:00,
2013-03-07 04:51:00,37.9,26.5,30.18,ESE,111,5.0,7.0,63,0.00,,---,0.00,VWS V14.00,2013-03-07 10:51:00,
2013-03-07 04:55:00,37.8,26.7,30.18,ESE,119,5.0,10.0,64,0.00,,---,0.00,VWS V14.00,2013-03-07 10:55:00,
2013-03-07 04:56:00,37.9,26.5,30.18,ESE,111,6.0,7.0,63,0.00,,---,0.00,VWS V14.00,2013-03-07 10:56:00,
2013-03-07 05:00:00,37.7,26.6,30.18,ESE,119,7.0,10.0,64,0.00,,---,0.00,VWS V14.00,2013-03-07 11:00:00,
2013-03-07 05:01:00,37.8,26.4,30.18,ESE,111,3.0,5.0,63,0.00,,---,0.00,VWS V14.00,2013-03-07 11:01:00,
2013-03-07 05:05:00,37.6,26.5,30.19,ESE,119,7.0,10.0,64,0.00,,---,0.00,VWS V14.00,2013-03-07 11:05:00,
2013-03-07 05:06:00,37.8,26.7,30.19,ESE,111,3.0,5.0,64,0.00,,---,0.00,VWS V14.00,2013-03-07 11:06:00,
2013-03-07 05:10:00,37.6,26.5,30.19,ESE,119,5.0,9.0,64,0.00,,---,0.00,VWS V14.00,2013-03-07 11:10:00,
2013-03-07 05:11:00,37.7,26.6,30.19,ESE,111,2.0,5.0,64,0.00,,---,0.00,VWS V14.00,2013-03-07 11:11:00,
2013-03-07 05:15:00,37.6,26.2,30.19,ESE,120,5.0,8.0,63,0.00,,---,0.00,VWS V14.00,2013-03-07 11:15:00,
2013-03-07 05:16:00,37.6,26.5,30.19,ESE,111,7.0,7.0,64,0.00,,---,0.00,VWS V14.00,2013-03-07 11:16:00,
2013-03-07 05:20:00,37.6,26.2,30.19,ESE,120,4.0,7.0,63,0.00,,---,0.00,VWS V14.00,2013-03-07 11:20:00,
2013-03-07 05:21:00,37.6,26.5,30.19,ESE,111,5.0,7.0,64,0.00,,---,0.00,VWS V14.00,2013-03-07 11:21:00,
2013-03-07 05:25:00,37.7,26.2,30.19,ESE,120,4.0,7.0,63,0.00,,---,0.00,VWS V14.00,2013-03-07 11:25:00,
2013-03-07 05:27:00,37.6,26.5,30.18,ESE,112,5.0,7.0,64,0.00,,---,0.00,VWS V14.00,2013-03-07 11:27:00,
2013-03-07 05:30:00,37.7,26.2,30.19,ESE,121,5.0,7.0,63,0.00,,---,0.00,VWS V14.00,2013-03-07 11:30:00,
2013-03-07 05:32:00,37.7,26.6,30.18,ESE,113,6.0,9.0,64,0.00,,---,0.00,VWS V14.00,2013-03-07 11:32:00,
2013-03-07 05:35:00,37.7,26.2,30.19,ESE,121,6.0,9.0,63,0.00,,---,0.00,VWS V14.00,2013-03-07 11:35:00,
2013-03-07 05:37:00,37.8,26.7,30.18,ESE,117,7.0,11.0,64,0.00,,---,0.00,VWS V14.00,2013-03-07 11:37:00,
2013-03-07 05:40:00,37.6,26.2,30.19,ESE,121,5.0,7.0,63,0.00,,---,0.00,VWS V14.00,2013-03-07 11:40:00,
2013-03-07 05:42:00,37.8,26.7,30.18,ESE,118,9.0,11.0,64,0.00,,---,0.00,VWS V14.00,2013-03-07 11:42:00,
2013-03-07 05:45:00,37.6,26.2,30.19,ESE,122,7.0,11.0,63,0.00,,---,0.00,VWS V14.00,2013-03-07 11:45:00,
2013-03-07 05:47:00,37.9,26.8,30.18,ESE,119,6.0,11.0,64,0.00,,---,0.00,VWS V14.00,2013-03-07 11:47:00,
2013-03-07 05:50:00,37.6,26.2,30.19,ESE,122,6.0,7.0,63,0.00,,---,0.00,VWS V14.00,2013-03-07 11:50:00,
2013-03-07 05:52:00,37.8,26.7,30.18,ESE,119,6.0,10.0,64,0.00,,---,0.00,VWS V14.00,2013-03-07 11:52:00,
2013-03-07 05:55:00,37.6,26.5,30.19,ESE,122,6.0,9.0,64,0.00,,---,0.00,VWS V14.00,2013-03-07 11:55:00,
2013-03-07 05:57:00,37.7,26.6,30.18,ESE,119,6.0,10.0,64,0.00,,---,0.00,VWS V14.00,2013-03-07 11:57:00,
2013-03-07 06:00:00,37.6,26.5,30.19,ESE,122,9.0,9.0,64,0.00,,---,0.00,VWS V14.00,2013-03-07 12:00:00,
2013-03-07 06:02:00,37.6,26.5,30.19,ESE,117,7.0,10.0,64,0.00,,---,0.00,VWS V14.00,2013-03-07 12:02:00,
2013-03-07 06:05:00,37.6,26.9,30.19,ESE,122,5.0,10.0,65,0.00,,---,0.00,VWS V14.00,2013-03-07 12:05:00,
2013-03-07 06:07:00,37.6,26.5,30.19,ESE,119,5.0,9.0,64,0.00,,---,0.00,VWS V14.00,2013-03-07 12:07:00,
2013-03-07 06:10:00,37.7,27.0,30.19,SE,124,11.0,11.0,65,0.00,,---,0.00,VWS V14.00,2013-03-07 12:10:00,
2013-03-07 06:12:00,37.6,26.5,30.19,ESE,119,5.0,8.0,64,0.00,,---,0.00,VWS V14.00,2013-03-07 12:12:00,
2013-03-07 06:15:00,38.0,27.3,30.19,SE,128,6.0,11.0,65,0.00,,---,0.00,VWS V14.00,2013-03-07 12:15:00,
2013-03-07 06:17:00,37.6,26.2,30.19,ESE,120,5.0,7.0,63,0.00,,---,0.00,VWS V14.00,2013-03-07 12:17:00,
2013-03-07 06:20:00,38.2,27.5,30.19,SE,128,6.0,12.0,65,0.00,,---,0.00,VWS V14.00,2013-03-07 12:20:00,
2013-03-07 06:22:00,37.7,26.3,30.19,ESE,120,3.0,7.0,63,0.00,,---,0.00,VWS V14.00,2013-03-07 12:22:00,
2013-03-07 06:25:00,38.6,27.9,30.19,SE,132,12.0,12.0,65,0.00,,---,0.00,VWS V14.00,2013-03-07 12:25:00,
2013-03-07 06:27:00,37.7,26.3,30.19,ESE,121,4.0,7.0,63,0.00,,---,0.00,VWS V14.00,2013-03-07 12:27:00,
2013-03-07 06:30:00,39.0,27.9,30.19,SE,135,6.0,12.0,64,0.00,,---,0.00,VWS V14.00,2013-03-07 12:30:00,
2013-03-07 06:32:00,37.7,26.3,30.19,ESE,120,5.0,6.0,63,0.00,,---,0.00,VWS V14.00,2013-03-07 12:32:00,
2013-03-07 06:35:00,39.5,28.4,30.19,SE,132,5.0,13.0,64,0.00,,---,0.00,VWS V14.00,2013-03-07 12:35:00,
2013-03-07 06:37:00,37.6,26.2,30.19,ESE,121,6.0,7.0,63,0.00,,---,0.00,VWS V14.00,2013-03-07 12:37:00,
2013-03-07 06:40:00,39.9,28.7,30.19,SE,131,6.0,13.0,64,0.00,,---,0.00,VWS V14.00,2013-03-07 12:40:00,
2013-03-07 06:42:00,37.6,26.2,30.19,ESE,122,11.0,11.0,63,0.00,,---,0.00,VWS V14.00,2013-03-07 12:42:00,
2013-03-07 06:45:00,40.4,28.8,30.20,SE,133,5.0,12.0,63,0.00,,---,0.00,VWS V14.00,2013-03-07 12:45:00,
2013-03-07 06:47:00,37.6,26.2,30.19,ESE,122,4.0,7.0,63,0.00,,---,0.00,VWS V14.00,2013-03-07 12:47:00,
2013-03-07 06:50:00,40.9,28.9,30.20,SE,129,11.0,13.0,62,0.00,,---,0.00,VWS V14.00,2013-03-07 12:50:00,
2013-03-07 06:52:00,37.7,26.3,30.19,ESE,122,5.0,6.0,63,0.00,,---,0.00,VWS V14.00,2013-03-07 12:52:00,
2013-03-07 06:55:00,41.4,28.6,30.20,SE,135,13.0,17.0,60,0.00,,---,0.00,VWS V14.00,2013-03-07 12:55:00,
2013-03-07 06:57:00,37.6,26.5,30.19,ESE,122,3.0,8.0,64,0.00,,---,0.00,VWS V14.00,2013-03-07 12:57:00,
2013-03-07 07:00:00,41.9,28.6,30.20,SE,132,15.0,16.0,59,0.00,,---,0.00,VWS V14.00,2013-03-07 13:00:00,
2013-03-07 07:02:00,37.6,26.5,30.19,ESE,122,5.0,10.0,64,0.00,,---,0.00,VWS V14.00,2013-03-07 13:02:00,
2013-03-07 07:05:00,42.3,28.6,30.20,SE,127,15.0,17.0,58,0.00,,---,0.00,VWS V14.00,2013-03-07 13:05:00,
2013-03-07 07:07:00,37.6,26.9,30.19,ESE,123,4.0,9.0,65,0.00,,---,0.00,VWS V14.00,2013-03-07 13:07:00,
2013-03-07 07:10:00,42.8,28.6,30.20,SE,136,13.0,19.0,57,0.00,,---,0.00,VWS V14.00,2013-03-07 13:10:00,
2013-03-07 07:12:00,37.8,27.1,30.19,SE,127,4.0,11.0,65,0.00,,---,0.00,VWS V14.00,2013-03-07 13:12:00,
2013-03-07 07:15:00,43.2,28.6,30.20,SE,134,12.0,18.0,56,0.00,,---,0.00,VWS V14.00,2013-03-07 13:15:00,
2013-03-07 07:17:00,38.1,27.8,30.19,SE,128,12.0,12.0,66,0.00,,---,0.00,VWS V14.00,2013-03-07 13:17:00,
2013-03-07 07:20:00,43.5,28.4,30.20,SE,143,14.0,21.0,55,0.00,,---,0.00,VWS V14.00,2013-03-07 13:20:00,
2013-03-07 07:22:00,38.4,27.7,30.19,SE,131,11.0,11.0,65,0.00,,---,0.00,VWS V14.00,2013-03-07 13:22:00,
2013-03-07 07:25:00,43.7,28.2,30.20,SE,124,14.0,18.0,54,0.00,,---,0.00,VWS V14.00,2013-03-07 13:25:00,
2013-03-07 07:27:00,38.8,28.1,30.19,SE,130,7.0,12.0,65,0.00,,---,0.00,VWS V14.00,2013-03-07 13:27:00,
2013-03-07 07:30:00,43.8,28.2,30.20,SSE,159,14.0,22.0,54,0.00,,---,0.00,VWS V14.00,2013-03-07 13:30:00,
2013-03-07 07:32:00,39.2,28.1,30.19,SE,133,9.0,13.0,64,0.00,,---,0.00,VWS V14.00,2013-03-07 13:32:00,
2013-03-07 07:35:00,44.1,28.5,30.20,SE,132,11.0,17.0,54,0.00,,---,0.00,VWS V14.00,2013-03-07 13:35:00,
2013-03-07 07:37:00,39.7,28.5,30.19,SE,132,9.0,10.0,64,0.00,,---,0.00,VWS V14.00,2013-03-07 13:37:00,
2013-03-07 07:40:00,44.4,28.8,30.20,SE,143,10.0,17.0,54,0.00,,---,0.00,VWS V14.00,2013-03-07 13:40:00,
2013-03-07 07:42:00,40.2,28.6,30.19,SE,135,9.0,12.0,63,0.00,,---,0.00,VWS V14.00,2013-03-07 13:42:00,
2013-03-07 07:45:00,44.7,28.6,30.20,SSE,154,14.0,20.0,53,0.00,,---,0.00,VWS V14.00,2013-03-07 13:45:00,
2013-03-07 07:47:00,40.6,29.0,30.20,SE,131,7.0,13.0,63,0.00,,---,0.00,VWS V14.00,2013-03-07 13:47:00,
2013-03-07 07:50:00,45.0,28.9,30.20,SE,138,12.0,19.0,53,0.00,,---,0.00,VWS V14.00,2013-03-07 13:50:00,
2013-03-07 07:52:00,41.1,28.7,30.20,SE,127,11.0,16.0,61,0.00,,---,0.00,VWS V14.00,2013-03-07 13:52:00,
2013-03-07 07:55:00,45.5,29.4,30.20,SE,144,11.0,18.0,53,0.00,,---,0.00,VWS V14.00,2013-03-07 13:55:00,
2013-03-07 07:57:00,41.6,28.8,30.20,SE,133,11.0,16.0,60,0.00,,---,0.00,VWS V14.00,2013-03-07 13:57:00,
2013-03-07 08:00:00,46.0,29.4,30.20,SE,143,9.0,14.0,52,0.00,,---,0.00,VWS V14.00,2013-03-07 14:00:00,
2013-03-07 08:02:00,42.1,28.4,30.20,SE,135,11.0,16.0,58,0.00,,---,0.00,VWS V14.00,2013-03-07 14:02:00,
2013-03-07 08:05:00,46.5,29.4,30.21,SSE,163,14.0,17.0,51,0.00,,---,0.00,VWS V14.00,2013-03-07 14:05:00,
2013-03-07 08:07:00,42.6,28.9,30.20,SSE,147,13.0,19.0,58,0.00,,---,0.00,VWS V14.00,2013-03-07 14:07:00,
2013-03-07 08:10:00,46.9,29.2,30.20,SSE,150,7.0,16.0,50,0.00,,---,0.00,VWS V14.00,2013-03-07 14:10:00,
2013-03-07 08:12:00,43.0,28.8,30.20,SE,134,9.0,15.0,57,0.00,,---,0.00,VWS V14.00,2013-03-07 14:12:00,
2013-03-07 08:15:00,47.3,28.6,30.20,SSE,148,15.0,22.0,48,0.00,,---,0.00,VWS V14.00,2013-03-07 14:15:00,
2013-03-07 08:17:00,43.4,28.3,30.20,SE,135,14.0,17.0,55,0.00,,---,0.00,VWS V14.00,2013-03-07 14:17:00,
2013-03-07 08:20:00,47.7,29.5,30.20,SE,129,11.0,15.0,49,0.00,,---,0.00,VWS V14.00,2013-03-07 14:20:00,
2013-03-07 08:22:00,43.7,28.2,30.20,SE,134,13.0,18.0,54,0.00,,---,0.00,VWS V14.00,2013-03-07 14:22:00,
2013-03-07 08:25:00,48.3,29.0,30.20,South,171,13.0,19.0,47,0.00,,---,0.00,VWS V14.00,2013-03-07 14:25:00,
2013-03-07 08:27:00,43.8,28.2,30.20,SSE,148,16.0,22.0,54,0.00,,---,0.00,VWS V14.00,2013-03-07 14:27:00,
2013-03-07 08:30:00,48.7,28.9,30.20,South,173,18.0,21.0,46,0.00,,---,0.00,VWS V14.00,2013-03-07 14:30:00,
2013-03-07 08:32:00,44.0,28.4,30.20,SSE,148,13.0,17.0,54,0.00,,---,0.00,VWS V14.00,2013-03-07 14:32:00,
2013-03-07 08:35:00,49.0,28.6,30.20,SSE,150,10.0,19.0,45,0.00,,---,0.00,VWS V14.00,2013-03-07 14:35:00,
2013-03-07 08:37:00,44.2,28.6,30.20,SE,134,10.0,16.0,54,0.00,,---,0.00,VWS V14.00,2013-03-07 14:37:00,
2013-03-07 08:40:00,49.5,29.6,30.20,South,171,14.0,18.0,46,0.00,,---,0.00,VWS V14.00,2013-03-07 14:40:00,
2013-03-07 08:42:00,44.5,28.9,30.20,SSE,155,10.0,20.0,54,0.00,,---,0.00,VWS V14.00,2013-03-07 14:42:00,
2013-03-07 08:45:00,50.1,29.0,30.20,SSE,148,13.0,16.0,44,0.00,,---,0.00,VWS V14.00,2013-03-07 14:45:00,
2013-03-07 08:47:00,44.8,28.7,30.20,SSE,155,10.0,19.0,53,0.00,,---,0.00,VWS V14.00,2013-03-07 14:47:00,
2013-03-07 08:50:00,50.8,29.7,30.20,SSE,155,10.0,16.0,44,0.00,,---,0.00,VWS V14.00,2013-03-07 14:50:00,
2013-03-07 08:52:00,45.2,29.1,30.20,SE,141,10.0,18.0,53,0.00,,---,0.00,VWS V14.00,2013-03-07 14:52:00,
2013-03-07 08:55:00,51.4,30.2,30.20,SSE,161,10.0,14.0,44,0.00,,---,0.00,VWS V14.00,2013-03-07 14:55:00,
2013-03-07 08:57:00,45.8,29.7,30.20,SE,146,14.0,14.0,53,0.00,,---,0.00,VWS V14.00,2013-03-07 14:57:00,
2013-03-07 09:00:00,52.1,29.7,30.19,SSE,149,11.0,19.0,42,0.00,,---,0.00,VWS V14.00,2013-03-07 15:00:00,
2013-03-07 09:02:00,46.3,29.2,30.21,SSE,159,12.0,15.0,51,0.00,,---,0.00,VWS V14.00,2013-03-07 15:02:00,
2013-03-07 09:05:00,52.8,29.2,30.19,SSE,163,15.0,24.0,40,0.00,,---,0.00,VWS V14.00,2013-03-07 15:05:00,
2013-03-07 09:07:00,46.7,29.1,30.21,SSE,147,13.0,16.0,50,0.00,,---,0.00,VWS V14.00,2013-03-07 15:07:00,
2013-03-07 09:10:00,53.3,29.0,30.19,SE,138,12.0,19.0,39,0.00,,---,0.00,VWS V14.00,2013-03-07 15:10:00,
2013-03-07 09:12:00,47.2,29.0,30.20,SSE,153,15.0,22.0,49,0.00,,---,0.00,VWS V14.00,2013-03-07 15:12:00,
2013-03-07 09:15:00,53.7,29.4,30.19,SE,131,13.0,21.0,39,0.00,,---,0.00,VWS V14.00,2013-03-07 15:15:00,
2013-03-07 09:17:00,47.5,28.8,30.20,SE,146,12.0,15.0,48,0.00,,---,0.00,VWS V14.00,2013-03-07 15:17:00,
2013-03-07 09:20:00,54.0,29.6,30.19,SE,142,16.0,22.0,39,0.00,,---,0.00,VWS V14.00,2013-03-07 15:20:00,
2013-03-07 09:22:00,48.1,29.4,30.20,SE,139,11.0,18.0,48,0.00,,---,0.00,VWS V14.00,2013-03-07 15:22:00,
2013-03-07 09:25:00,54.3,29.2,30.19,SSE,163,15.0,22.0,38,0.00,,---,0.00,VWS V14.00,2013-03-07 15:25:00,
2013-03-07 09:27:00,48.5,28.7,30.21,SSE,150,13.0,21.0,46,0.00,,---,0.00,VWS V14.00,2013-03-07 15:27:00,
2013-03-07 09:30:00,54.6,28.9,30.19,SSE,161,8.0,21.0,37,0.00,,---,0.00,VWS V14.00,2013-03-07 15:30:00,
2013-03-07 09:32:00,48.9,29.0,30.21,SSE,151,14.0,19.0,46,0.00,,---,0.00,VWS V14.00,2013-03-07 15:32:00,
2013-03-07 09:35:00,55.1,30.0,30.18,SSE,152,14.0,24.0,38,0.00,,---,0.00,VWS V14.00,2013-03-07 15:35:00,
2013-03-07 09:37:00,49.3,29.4,30.20,SSE,157,10.0,18.0,46,0.00,,---,0.00,VWS V14.00,2013-03-07 15:37:00,
2013-03-07 09:40:00,55.5,29.7,30.18,SE,140,21.0,24.0,37,0.00,,---,0.00,VWS V14.00,2013-03-07 15:40:00,
2013-03-07 09:42:00,49.9,29.4,30.20,SSE,168,13.0,16.0,45,0.00,,---,0.00,VWS V14.00,2013-03-07 15:42:00,
2013-03-07 09:45:00,56.0,29.4,30.18,South,184,20.0,25.0,36,0.00,,---,0.00,VWS V14.00,2013-03-07 15:45:00,
2013-03-07 09:47:00,50.5,29.4,30.20,SSE,149,7.0,14.0,44,0.00,,---,0.00,VWS V14.00,2013-03-07 15:47:00,
2013-03-07 09:50:00,56.4,29.1,30.18,SSE,150,15.0,24.0,35,0.00,,---,0.00,VWS V14.00,2013-03-07 15:50:00,
2013-03-07 09:52:00,51.2,30.0,30.20,SE,132,11.0,14.0,44,0.00,,---,0.00,VWS V14.00,2013-03-07 15:52:00,
2013-03-07 09:55:00,56.7,30.1,30.18,SSE,159,15.0,19.0,36,0.00,,---,0.00,VWS V14.00,2013-03-07 15:55:00,
2013-03-07 09:57:00,51.9,29.5,30.20,SSE,164,10.0,19.0,42,0.00,,---,0.00,VWS V14.00,2013-03-07 15:57:00,
2013-03-07 10:00:00,57.0,29.6,30.18,South,184,22.0,25.0,35,0.00,,---,0.00,VWS V14.00,2013-03-07 16:00:00,
2013-03-07 10:02:00,52.6,29.0,30.19,SE,144,13.0,24.0,40,0.00,,---,0.00,VWS V14.00,2013-03-07 16:02:00,
2013-03-07 10:05:00,57.3,29.2,30.17,SSE,160,18.0,25.0,34,0.00,,---,0.00,VWS V14.00,2013-03-07 16:05:00,
2013-03-07 10:07:00,53.2,30.1,30.19,SE,142,11.0,18.0,41,0.00,,---,0.00,VWS V14.00,2013-03-07 16:07:00,
2013-03-07 10:10:00,57.8,30.4,30.17,SSE,156,9.0,24.0,35,0.00,,---,0.00,VWS V14.00,2013-03-07 16:10:00,
2013-03-07 10:12:00,53.6,28.6,30.19,SSE,153,14.0,21.0,38,0.00,,---,0.00,VWS V14.00,2013-03-07 16:12:00,
2013-03-07 10:15:00,58.5,31.0,30.17,South,181,11.0,26.0,35,0.00,,---,0.00,VWS V14.00,2013-03-07 16:15:00,
2013-03-07 10:17:00,53.9,28.9,30.19,SSE,159,17.0,22.0,38,0.00,,---,0.00,VWS V14.00,2013-03-07 16:17:00,
2013-03-07 10:20:00,59.0,30.7,30.17,SSE,158,10.0,25.0,34,0.00,,---,0.00,VWS V14.00,2013-03-07 16:20:00,
2013-03-07 10:22:00,54.2,29.2,30.19,SE,140,15.0,22.0,38,0.00,,---,0.00,VWS V14.00,2013-03-07 16:22:00,
2013-03-07 10:25:00,59.1,30.0,30.17,SSE,158,13.0,18.0,33,0.00,,---,0.00,VWS V14.00,2013-03-07 16:25:00,
2013-03-07 10:27:00,54.5,28.8,30.18,SE,146,13.0,21.0,37,0.00,,---,0.00,VWS V14.00,2013-03-07 16:27:00,
2013-03-07 10:30:00,59.5,31.1,30.17,SSE,154,17.0,23.0,34,0.00,,---,0.00,VWS V14.00,2013-03-07 16:30:00,
2013-03-07 10:32:00,54.9,29.8,30.18,SE,135,12.0,23.0,38,0.00,,---,0.00,VWS V14.00,2013-03-07 16:32:00,
2013-03-07 10:35:00,59.6,30.5,30.17,South,171,17.0,23.0,33,0.00,,---,0.00,VWS V14.00,2013-03-07 16:35:00,
2013-03-07 10:37:00,55.4,29.6,30.18,South,170,12.0,24.0,37,0.00,,---,0.00,VWS V14.00,2013-03-07 16:37:00,
2013-03-07 10:40:00,59.8,31.4,30.17,SE,140,11.0,27.0,34,0.00,,---,0.00,VWS V14.00,2013-03-07 16:40:00,
2013-03-07 10:42:00,55.9,29.4,30.18,SSE,167,15.0,22.0,36,0.00,,---,0.00,VWS V14.00,2013-03-07 16:42:00,
2013-03-07 10:45:00,60.0,30.1,30.16,South,179,14.0,23.0,32,0.00,,---,0.00,VWS V14.00,2013-03-07 16:45:00,
2013-03-07 10:47:00,56.3,29.0,30.18,SSE,165,18.0,24.0,35,0.00,,---,0.00,VWS V14.00,2013-03-07 16:47:00,
2013-03-07 10:50:00,60.3,31.1,30.17,SSE,148,15.0,25.0,33,0.00,,---,0.00,VWS V14.00,2013-03-07 16:50:00,
2013-03-07 10:52:00,56.5,29.2,30.18,SSE,152,14.0,19.0,35,0.00,,---,0.00,VWS V14.00,2013-03-07 16:52:00,
2013-03-07 10:55:00,60.4,31.2,30.16,SSE,159,10.0,24.0,33,0.00,,---,0.00,VWS V14.00,2013-03-07 16:55:00,
2013-03-07 10:57:00,56.9,28.8,30.18,SE,136,9.0,23.0,34,0.00,,---,0.00,VWS V14.00,2013-03-07 16:57:00,
2013-03-07 11:00:00,60.7,30.7,30.16,SSE,151,16.0,27.0,32,0.00,,---,0.00,VWS V14.00,2013-03-07 17:00:00,
2013-03-07 11:02:00,57.2,29.1,30.18,SSE,163,15.0,25.0,34,0.00,,---,0.00,VWS V14.00,2013-03-07 17:02:00,
2013-03-07 11:05:00,61.2,30.4,30.16,South,180,26.0,26.0,31,0.00,,---,0.00,VWS V14.00,2013-03-07 17:05:00,
2013-03-07 11:07:00,57.6,29.5,30.17,SSE,148,12.0,24.0,34,0.00,,---,0.00,VWS V14.00,2013-03-07 17:07:00,
2013-03-07 11:10:00,61.3,30.4,30.16,SSE,157,16.0,26.0,31,0.00,,---,0.00,VWS V14.00,2013-03-07 17:10:00,
2013-03-07 11:12:00,58.3,30.8,30.17,SSW,202,19.0,26.0,35,0.00,,---,0.00,VWS V14.00,2013-03-07 17:12:00,
2013-03-07 11:15:00,61.5,30.6,30.15,SE,144,12.0,26.0,31,0.00,,---,0.00,VWS V14.00,2013-03-07 17:15:00,
2013-03-07 11:17:00,58.8,31.2,30.17,South,180,18.0,22.0,35,0.00,,---,0.00,VWS V14.00,2013-03-07 17:17:00,
2013-03-07 11:20:00,61.8,30.9,30.15,SSE,159,19.0,25.0,31,0.00,,---,0.00,VWS V14.00,2013-03-07 17:20:00,
2013-03-07 11:22:00,59.0,31.4,30.17,South,169,10.0,18.0,35,0.00,,---,0.00,VWS V14.00,2013-03-07 17:22:00,
2013-03-07 11:25:00,62.0,30.2,30.15,SSE,167,10.0,25.0,30,0.00,,---,0.00,VWS V14.00,2013-03-07 17:25:00,
2013-03-07 11:27:00,59.3,31.7,30.17,South,171,15.0,15.0,35,0.00,,---,0.00,VWS V14.00,2013-03-07 17:27:00,
2013-03-07 11:30:00,62.2,30.4,30.15,South,180,18.0,29.0,30,0.00,,---,0.00,VWS V14.00,2013-03-07 17:30:00,
2013-03-07 11:32:00,59.6,30.5,30.17,SSE,161,20.0,21.0,33,0.00,,---,0.00,VWS V14.00,2013-03-07 17:32:00,
2013-03-07 11:35:00,62.3,30.5,30.15,SSE,163,22.0,27.0,30,0.00,,---,0.00,VWS V14.00,2013-03-07 17:35:00,
2013-03-07 11:37:00,59.7,31.3,30.17,South,189,12.0,27.0,34,0.00,,---,0.00,VWS V14.00,2013-03-07 17:37:00,
2013-03-07 11:40:00,62.1,30.3,30.15,SSE,156,21.0,30.0,30,0.00,,---,0.00,VWS V14.00,2013-03-07 17:40:00,
2013-03-07 11:42:00,60.0,30.8,30.17,South,178,13.0,23.0,33,0.00,,---,0.00,VWS V14.00,2013-03-07 17:42:00,
2013-03-07 11:45:00,62.1,30.3,30.14,SSE,168,12.0,30.0,30,0.00,,---,0.00,VWS V14.00,2013-03-07 17:45:00,
2013-03-07 11:47:00,60.2,31.0,30.17,South,185,11.0,25.0,33,0.00,,---,0.00,VWS V14.00,2013-03-07 17:47:00,
2013-03-07 11:50:00,62.5,30.7,30.14,SSE,154,16.0,27.0,30,0.00,,---,0.00,VWS V14.00,2013-03-07 17:50:00,
2013-03-07 11:52:00,60.4,30.4,30.16,SSE,158,16.0,24.0,32,0.00,,---,0.00,VWS V14.00,2013-03-07 17:52:00,
2013-03-07 11:55:00,62.6,30.8,30.14,SSE,156,21.0,27.0,30,0.00,,---,0.00,VWS V14.00,2013-03-07 17:55:00,
2013-03-07 11:57:00,60.5,30.5,30.16,SSE,161,13.0,27.0,32,0.00,,---,0.00,VWS V14.00,2013-03-07 17:57:00,
2013-03-07 12:00:00,62.6,30.8,30.13,SSE,168,18.0,21.0,30,0.00,,---,0.00,VWS V14.00,2013-03-07 18:00:00,
2013-03-07 12:02:00,61.0,31.0,30.16,SSW,192,16.0,25.0,32,0.00,,---,0.00,VWS V14.00,2013-03-07 18:02:00,
2013-03-07 12:05:00,62.9,31.0,30.13,South,170,19.0,25.0,30,0.00,,---,0.00,VWS V14.00,2013-03-07 18:05:00,
2013-03-07 12:07:00,61.3,30.4,30.16,SSE,152,19.0,26.0,31,0.00,,---,0.00,VWS V14.00,2013-03-07 18:07:00,
2013-03-07 12:10:00,63.1,30.4,30.12,SSE,165,12.0,24.0,29,0.00,,---,0.00,VWS V14.00,2013-03-07 18:10:00,
2013-03-07 12:13:00,61.4,30.5,30.15,South,187,13.0,26.0,31,0.00,,---,0.00,VWS V14.00,2013-03-07 18:13:00,
2013-03-07 12:15:00,63.4,32.3,30.12,SSE,148,16.0,22.0,31,0.00,,---,0.00,VWS V14.00,2013-03-07 18:15:00,
2013-03-07 12:18:00,61.8,30.9,30.15,South,178,20.0,25.0,31,0.00,,---,0.00,VWS V14.00,2013-03-07 18:18:00,
2013-03-07 12:20:00,63.7,31.7,30.12,SSE,149,15.0,22.0,30,0.00,,---,0.00,VWS V14.00,2013-03-07 18:20:00,
2013-03-07 12:23:00,62.0,30.2,30.15,SSE,165,18.0,25.0,30,0.00,,---,0.00,VWS V14.00,2013-03-07 18:23:00,
2013-03-07 12:25:00,63.8,31.8,30.12,SE,128,23.0,28.0,30,0.00,,---,0.00,VWS V14.00,2013-03-07 18:25:00,
2013-03-07 12:28:00,62.2,31.2,30.15,South,175,28.0,29.0,31,0.00,,---,0.00,VWS V14.00,2013-03-07 18:28:00,
2013-03-07 12:30:00,63.7,30.9,30.11,SSE,161,12.0,25.0,29,0.00,,---,0.00,VWS V14.00,2013-03-07 18:30:00,
2013-03-07 12:33:00,62.3,31.3,30.15,SSW,196,25.0,25.0,31,0.00,,---,0.00,VWS V14.00,2013-03-07 18:33:00,
2013-03-07 12:35:00,64.2,31.3,30.11,SSE,157,16.0,20.0,29,0.00,,---,0.00,VWS V14.00,2013-03-07 18:35:00,
2013-03-07 12:38:00,62.2,31.2,30.14,SSE,153,16.0,24.0,31,0.00,,---,0.00,VWS V14.00,2013-03-07 18:38:00,
2013-03-07 12:40:00,64.3,31.4,30.11,SSE,151,10.0,26.0,29,0.00,,---,0.00,VWS V14.00,2013-03-07 18:40:00,
2013-03-07 12:43:00,62.1,30.3,30.14,SSE,156,18.0,30.0,30,0.00,,---,0.00,VWS V14.00,2013-03-07 18:43:00,
2013-03-07 12:45:00,64.5,30.7,30.10,SSE,167,13.0,23.0,28,0.00,,---,0.00,VWS V14.00,2013-03-07 18:45:00,
2013-03-07 12:48:00,62.3,31.3,30.14,SSE,164,16.0,22.0,31,0.00,,---,0.00,VWS V14.00,2013-03-07 18:48:00,
2013-03-07 12:50:00,64.7,31.7,30.10,SE,135,11.0,22.0,29,0.00,,---,0.00,VWS V14.00,2013-03-07 18:50:00,
2013-03-07 12:53:00,62.7,31.6,30.14,SSE,157,15.0,27.0,31,0.00,,---,0.00,VWS V14.00,2013-03-07 18:53:00,
2013-03-07 12:55:00,65.0,32.0,30.09,South,182,19.0,25.0,29,0.00,,---,0.00,VWS V14.00,2013-03-07 18:55:00,
2013-03-07 12:58:00,62.6,32.3,30.13,SE,137,14.0,21.0,32,0.00,,---,0.00,VWS V14.00,2013-03-07 18:58:00,
2013-03-07 13:00:00,65.2,32.2,30.10,SSE,157,16.0,22.0,29,0.00,,---,0.00,VWS V14.00,2013-03-07 19:00:00,
2013-03-07 13:03:00,62.9,31.0,30.13,SSE,157,15.0,21.0,30,0.00,,---,0.00,VWS V14.00,2013-03-07 19:03:00,
2013-03-07 13:05:00,65.2,31.3,30.09,South,186,17.0,21.0,28,0.00,,---,0.00,VWS V14.00,2013-03-07 19:05:00,
2013-03-07 13:08:00,63.0,31.9,30.13,South,190,13.0,24.0,31,0.00,,---,0.00,VWS V14.00,2013-03-07 19:08:00,
2013-03-07 13:10:00,65.3,31.4,30.09,SE,146,16.0,24.0,28,0.00,,---,0.00,VWS V14.00,2013-03-07 19:10:00,
2013-03-07 13:13:00,63.3,31.4,30.12,SE,145,16.0,22.0,30,0.00,,---,0.00,VWS V14.00,2013-03-07 19:13:00,
2013-03-07 13:15:00,65.3,32.3,30.09,SSE,153,11.0,22.0,29,0.00,,---,0.00,VWS V14.00,2013-03-07 19:15:00,
2013-03-07 13:18:00,63.6,31.6,30.12,South,171,17.0,22.0,30,0.00,,---,0.00,VWS V14.00,2013-03-07 19:18:00,
2013-03-07 13:20:00,65.2,31.3,30.09,SSW,194,14.0,27.0,28,0.00,,---,0.00,VWS V14.00,2013-03-07 19:20:00,
2013-03-07 13:23:00,63.8,31.8,30.12,SE,132,13.0,21.0,30,0.00,,---,0.00,VWS V14.00,2013-03-07 19:23:00,
2013-03-07 13:25:00,65.4,32.3,30.09,SE,126,15.0,20.0,29,0.00,,---,0.00,VWS V14.00,2013-03-07 19:25:00,
2013-03-07 13:28:00,63.6,30.8,30.11,SE,128,15.0,25.0,29,0.00,,---,0.00,VWS V14.00,2013-03-07 19:28:00,
2013-03-07 13:30:00,65.6,32.5,30.09,SSE,166,14.0,19.0,29,0.00,,---,0.00,VWS V14.00,2013-03-07 19:30:00,
2013-03-07 13:33:00,64.1,32.1,30.11,SE,144,16.0,19.0,30,0.00,,---,0.00,VWS V14.00,2013-03-07 19:33:00,
2013-03-07 13:35:00,65.6,31.6,30.09,SSE,153,9.0,23.0,28,0.00,,---,0.00,VWS V14.00,2013-03-07 19:35:00,
2013-03-07 13:38:00,64.3,31.4,30.11,SSE,157,17.0,26.0,29,0.00,,---,0.00,VWS V14.00,2013-03-07 19:38:00,
2013-03-07 13:40:00,65.6,31.6,30.08,SE,134,14.0,19.0,28,0.00,,---,0.00,VWS V14.00,2013-03-07 19:40:00,
2013-03-07 13:43:00,64.5,31.6,30.10,South,171,12.0,23.0,29,0.00,,---,0.00,VWS V14.00,2013-03-07 19:43:00,
2013-03-07 13:45:00,65.8,32.7,30.09,SSE,155,11.0,20.0,29,0.00,,---,0.00,VWS V14.00,2013-03-07 19:45:00,
2013-03-07 13:48:00,64.6,33.3,30.10,SSE,159,11.0,20.0,31,0.00,,---,0.00,VWS V14.00,2013-03-07 19:48:00,
2013-03-07 13:50:00,66.1,33.0,30.09,SSE,156,16.0,20.0,29,0.00,,---,0.00,VWS V14.00,2013-03-07 19:50:00,
2013-03-07 13:53:00,64.9,31.9,30.10,SSE,165,15.0,25.0,29,0.00,,---,0.00,VWS V14.00,2013-03-07 19:53:00,
2013-03-07 13:55:00,66.2,32.2,30.09,SSE,150,14.0,22.0,28,0.00,,---,0.00,VWS V14.00,2013-03-07 19:55:00,
2013-03-07 13:58:00,65.1,32.1,30.09,SSE,161,14.0,22.0,29,0.00,,---,0.00,VWS V14.00,2013-03-07 19:58:00,
2013-03-07 14:00:00,66.1,32.1,30.08,SSE,153,12.0,18.0,28,0.00,,---,0.00,VWS V14.00,2013-03-07 20:00:00,
2013-03-07 14:03:00,65.2,31.3,30.09,SSE,148,11.0,21.0,28,0.00,,---,0.00,VWS V14.00,2013-03-07 20:03:00,
2013-03-07 14:05:00,66.1,32.1,30.08,SE,132,14.0,24.0,28,0.00,,---,0.00,VWS V14.00,2013-03-07 20:05:00,
2013-03-07 14:08:00,65.3,32.3,30.09,SE,137,16.0,22.0,29,0.00,,---,0.00,VWS V14.00,2013-03-07 20:08:00,
2013-03-07 14:10:00,66.0,32.0,30.08,SE,131,16.0,21.0,28,0.00,,---,0.00,VWS V14.00,2013-03-07 20:10:00,
2013-03-07 14:13:00,65.3,32.3,30.09,SSW,197,18.0,22.0,29,0.00,,---,0.00,VWS V14.00,2013-03-07 20:13:00,
2013-03-07 14:15:00,66.0,32.9,30.08,South,170,17.0,18.0,29,0.00,,---,0.00,VWS V14.00,2013-03-07 20:15:00,
2013-03-07 14:18:00,65.2,31.3,30.09,SSE,159,11.0,27.0,28,0.00,,---,0.00,VWS V14.00,2013-03-07 20:18:00,
2013-03-07 14:20:00,66.3,32.2,30.08,SE,144,19.0,25.0,28,0.00,,---,0.00,VWS V14.00,2013-03-07 20:20:00,
2013-03-07 14:23:00,65.3,32.3,30.09,SSE,163,14.0,20.0,29,0.00,,---,0.00,VWS V14.00,2013-03-07 20:23:00,
2013-03-07 14:25:00,66.5,32.4,30.08,SSW,195,15.0,21.0,28,0.00,,---,0.00,VWS V14.00,2013-03-07 20:25:00,
2013-03-07 14:28:00,65.6,31.6,30.09,SE,132,16.0,19.0,28,0.00,,---,0.00,VWS V14.00,2013-03-07 20:28:00,
2013-03-07 14:30:00,66.6,32.5,30.08,SSE,149,16.0,26.0,28,0.00,,---,0.00,VWS V14.00,2013-03-07 20:30:00,
2013-03-07 14:33:00,65.6,31.6,30.09,SSE,166,13.0,23.0,28,0.00,,---,0.00,VWS V14.00,2013-03-07 20:33:00,
2013-03-07 14:35:00,66.7,33.5,30.08,SSE,168,12.0,16.0,29,0.00,,---,0.00,VWS V14.00,2013-03-07 20:35:00,
2013-03-07 14:38:00,65.7,31.7,30.09,SE,124,15.0,16.0,28,0.00,,---,0.00,VWS V14.00,2013-03-07 20:38:00,
2013-03-07 14:40:00,66.6,32.5,30.07,SSE,166,13.0,24.0,28,0.00,,---,0.00,VWS V14.00,2013-03-07 20:40:00,
2013-03-07 14:43:00,65.7,32.6,30.09,SSW,200,9.0,19.0,29,0.00,,---,0.00,VWS V14.00,2013-03-07 20:43:00,
2013-03-07 14:45:00,66.5,32.4,30.07,SE,144,15.0,22.0,28,0.00,,---,0.00,VWS V14.00,2013-03-07 20:45:00,
2013-03-07 14:48:00,66.0,32.0,30.09,SE,144,14.0,16.0,28,0.00,,---,0.00,VWS V14.00,2013-03-07 20:48:00,
2013-03-07 14:50:00,66.5,33.3,30.07,South,188,20.0,22.0,29,0.00,,---,0.00,VWS V14.00,2013-03-07 20:50:00,
2013-03-07 14:53:00,66.2,32.2,30.09,SE,146,14.0,19.0,28,0.00,,---,0.00,VWS V14.00,2013-03-07 20:53:00,
2013-03-07 14:55:00,66.6,33.4,30.07,SSE,167,15.0,21.0,29,0.00,,---,0.00,VWS V14.00,2013-03-07 20:55:00,
2013-03-07 14:58:00,66.1,32.1,30.09,SE,136,13.0,18.0,28,0.00,,---,0.00,VWS V14.00,2013-03-07 20:58:00,
2013-03-07 15:00:00,66.7,33.5,30.07,SSE,160,19.0,19.0,29,0.00,,---,0.00,VWS V14.00,2013-03-07 21:00:00,
2013-03-07 15:03:00,66.1,32.1,30.08,SE,134,13.0,24.0,28,0.00,,---,0.00,VWS V14.00,2013-03-07 21:03:00,
2013-03-07 15:05:00,66.3,32.2,30.07,South,178,17.0,24.0,28,0.00,,---,0.00,VWS V14.00,2013-03-07 21:05:00,
2013-03-07 15:08:00,66.0,32.9,30.08,SSE,150,11.0,21.0,29,0.00,,---,0.00,VWS V14.00,2013-03-07 21:08:00,
2013-03-07 15:10:00,66.3,33.1,30.07,SSE,162,9.0,19.0,29,0.00,,---,0.00,VWS V14.00,2013-03-07 21:10:00,
2013-03-07 15:13:00,65.9,32.8,30.08,SSE,161,10.0,18.0,29,0.00,,---,0.00,VWS V14.00,2013-03-07 21:13:00,
2013-03-07 15:15:00,66.3,33.1,30.06,SSE,158,15.0,19.0,29,0.00,,---,0.00,VWS V14.00,2013-03-07 21:15:00,
2013-03-07 15:18:00,66.2,32.2,30.08,SE,138,15.0,21.0,28,0.00,,---,0.00,VWS V14.00,2013-03-07 21:18:00,
2013-03-07 15:20:00,66.2,32.2,30.06,SSE,148,9.0,20.0,28,0.00,,---,0.00,VWS V14.00,2013-03-07 21:20:00,
2013-03-07 15:23:00,66.5,32.4,30.08,South,170,16.0,21.0,28,0.00,,---,0.00,VWS V14.00,2013-03-07 21:23:00,
2013-03-07 15:25:00,66.1,32.1,30.06,SSE,161,17.0,20.0,28,0.00,,---,0.00,VWS V14.00,2013-03-07 21:25:00,
2013-03-07 15:28:00,66.7,32.6,30.08,SE,146,16.0,26.0,28,0.00,,---,0.00,VWS V14.00,2013-03-07 21:28:00,
2013-03-07 15:30:00,66.2,33.0,30.06,SSE,163,16.0,18.0,29,0.00,,---,0.00,VWS V14.00,2013-03-07 21:30:00,
2013-03-07 15:33:00,66.7,32.6,30.07,SE,134,15.0,16.0,28,0.00,,---,0.00,VWS V14.00,2013-03-07 21:33:00,
2013-03-07 15:35:00,66.2,33.0,30.06,SE,134,13.0,22.0,29,0.00,,---,0.00,VWS V14.00,2013-03-07 21:35:00,
2013-03-07 15:38:00,66.7,32.6,30.07,SE,136,13.0,24.0,28,0.00,,---,0.00,VWS V14.00,2013-03-07 21:38:00,
2013-03-07 15:40:00,66.0,32.9,30.06,SE,142,8.0,20.0,29,0.00,,---,0.00,VWS V14.00,2013-03-07 21:40:00,
2013-03-07 15:43:00,66.6,32.5,30.07,ESE,122,13.0,20.0,28,0.00,,---,0.00,VWS V14.00,2013-03-07 21:43:00,
2013-03-07 15:45:00,65.9,32.8,30.06,SE,130,14.0,20.0,29,0.00,,---,0.00,VWS V14.00,2013-03-07 21:45:00,
2013-03-07 15:48:00,66.4,34.0,30.07,South,173,9.0,19.0,30,0.00,,---,0.00,VWS V14.00,2013-03-07 21:48:00,
2013-03-07 15:50:00,65.7,32.6,30.06,SSE,156,13.0,22.0,29,0.00,,---,0.00,VWS V14.00,2013-03-07 21:50:00,
2013-03-07 15:53:00,66.6,32.5,30.07,South,175,13.0,21.0,28,0.00,,---,0.00,VWS V14.00,2013-03-07 21:53:00,
2013-03-07 15:55:00,65.5,32.4,30.06,SE,145,13.0,22.0,29,0.00,,---,0.00,VWS V14.00,2013-03-07 21:55:00,
2013-03-07 15:58:00,66.7,33.5,30.07,SSE,148,11.0,19.0,29,0.00,,---,0.00,VWS V14.00,2013-03-07 21:58:00,
2013-03-07 16:00:00,65.2,33.0,30.06,SE,145,10.0,20.0,30,0.00,,---,0.00,VWS V14.00,2013-03-07 22:00:00,
2013-03-07 16:03:00,66.4,32.3,30.07,SE,139,16.0,24.0,28,0.00,,---,0.00,VWS V14.00,2013-03-07 22:03:00,
2013-03-07 16:05:00,65.1,32.9,30.06,SSE,149,15.0,18.0,30,0.00,,---,0.00,VWS V14.00,2013-03-07 22:05:00,
2013-03-07 16:08:00,66.3,32.2,30.07,South,184,14.0,19.0,28,0.00,,---,0.00,VWS V14.00,2013-03-07 22:08:00,
2013-03-07 16:10:00,64.8,33.5,30.05,SE,146,10.0,23.0,31,0.00,,---,0.00,VWS V14.00,2013-03-07 22:10:00,
2013-03-07 16:13:00,66.3,33.1,30.07,South,174,13.0,18.0,29,0.00,,---,0.00,VWS V14.00,2013-03-07 22:13:00,
2013-03-07 16:15:00,64.6,32.5,30.05,SSE,154,10.0,17.0,30,0.00,,---,0.00,VWS V14.00,2013-03-07 22:15:00,
2013-03-07 16:18:00,66.2,33.0,30.06,SE,142,12.0,20.0,29,0.00,,---,0.00,VWS V14.00,2013-03-07 22:18:00,
2013-03-07 16:20:00,64.4,32.3,30.05,SE,140,15.0,17.0,30,0.00,,---,0.00,VWS V14.00,2013-03-07 22:20:00,
2013-03-07 16:23:00,66.2,33.0,30.06,South,174,18.0,19.0,29,0.00,,---,0.00,VWS V14.00,2013-03-07 22:23:00,
2013-03-07 16:25:00,64.1,32.9,30.06,SSE,153,12.0,20.0,31,0.00,,---,0.00,VWS V14.00,2013-03-07 22:25:00,
2013-03-07 16:28:00,66.1,33.0,30.06,South,177,6.0,18.0,29,0.00,,---,0.00,VWS V14.00,2013-03-07 22:28:00,
2013-03-07 16:30:00,63.9,32.7,30.06,SE,144,9.0,16.0,31,0.00,,---,0.00,VWS V14.00,2013-03-07 22:30:00,
2013-03-07 16:33:00,66.2,33.0,30.06,SE,143,9.0,22.0,29,0.00,,---,0.00,VWS V14.00,2013-03-07 22:33:00,
2013-03-07 16:35:00,63.7,32.5,30.06,SSE,150,10.0,16.0,31,0.00,,---,0.00,VWS V14.00,2013-03-07 22:35:00,
2013-03-07 16:38:00,66.1,33.0,30.06,SE,131,13.0,20.0,29,0.00,,---,0.00,VWS V14.00,2013-03-07 22:38:00,
2013-03-07 16:40:00,63.5,32.3,30.06,SSE,147,7.0,23.0,31,0.00,,---,0.00,VWS V14.00,2013-03-07 22:40:00,
2013-03-07 16:43:00,65.9,32.8,30.06,South,172,13.0,18.0,29,0.00,,---,0.00,VWS V14.00,2013-03-07 22:43:00,
2013-03-07 16:45:00,63.3,32.2,30.06,SSE,155,12.0,20.0,31,0.00,,---,0.00,VWS V14.00,2013-03-07 22:45:00,
2013-03-07 16:48:00,65.8,32.7,30.06,SSE,151,20.0,20.0,29,0.00,,---,0.00,VWS V14.00,2013-03-07 22:48:00,
2013-03-07 16:50:00,63.2,32.9,30.06,SSE,153,12.0,18.0,32,0.00,,---,0.00,VWS V14.00,2013-03-07 22:50:00,
2013-03-07 16:53:00,65.6,32.5,30.06,SSE,149,10.0,22.0,29,0.00,,---,0.00,VWS V14.00,2013-03-07 22:53:00,
2013-03-07 16:55:00,63.0,32.7,30.05,SSE,149,10.0,17.0,32,0.00,,---,0.00,VWS V14.00,2013-03-07 22:55:00,
2013-03-07 16:58:00,65.3,32.3,30.06,SE,126,17.0,20.0,29,0.00,,---,0.00,VWS V14.00,2013-03-07 22:58:00,
2013-03-07 17:00:00,62.7,32.4,30.06,SE,146,14.0,17.0,32,0.00,,---,0.00,VWS V14.00,2013-03-07 23:00:00,
2013-03-07 17:03:00,65.1,32.9,30.05,SSE,150,13.0,18.0,30,0.00,,---,0.00,VWS V14.00,2013-03-07 23:03:00,
2013-03-07 17:05:00,62.4,32.2,30.06,SSE,148,7.0,14.0,32,0.00,,---,0.00,VWS V14.00,2013-03-07 23:05:00,
2013-03-07 17:08:00,64.9,32.8,30.05,South,177,23.0,23.0,30,0.00,,---,0.00,VWS V14.00,2013-03-07 23:08:00,
2013-03-07 17:10:00,62.1,31.9,30.06,SSE,151,7.0,16.0,32,0.00,,---,0.00,VWS V14.00,2013-03-07 23:10:00,
2013-03-07 17:13:00,64.7,33.4,30.06,SSE,150,12.0,17.0,31,0.00,,---,0.00,VWS V14.00,2013-03-07 23:13:00,
2013-03-07 17:18:00,64.5,32.4,30.06,SE,140,14.0,16.0,30,0.00,,---,0.00,VWS V14.00,2013-03-07 23:18:00,
2013-03-07 17:23:00,64.2,33.0,30.05,SE,125,16.0,20.0,31,0.00,,---,0.00,VWS V14.00,2013-03-07 23:23:00,
2013-03-07 17:25:00,61.2,31.9,30.06,SE,140,7.0,15.0,33,0.00,,---,0.00,VWS V14.00,2013-03-07 23:25:00,
2013-03-07 17:28:00,63.9,32.7,30.06,SE,139,11.0,16.0,31,0.00,,---,0.00,VWS V14.00,2013-03-07 23:28:00,
2013-03-07 17:30:00,60.9,31.6,30.07,SSE,147,5.0,13.0,33,0.00,,---,0.00,VWS V14.00,2013-03-07 23:30:00,
2013-03-07 17:33:00,63.8,32.6,30.06,SE,138,7.0,16.0,31,0.00,,---,0.00,VWS V14.00,2013-03-07 23:33:00,
2013-03-07 17:38:00,63.6,32.4,30.06,SE,134,14.0,23.0,31,0.00,,---,0.00,VWS V14.00,2013-03-07 23:38:00,
2013-03-07 17:43:00,63.4,33.0,30.06,SSE,159,14.0,15.0,32,0.00,,---,0.00,VWS V14.00,2013-03-07 23:43:00,
2013-03-07 17:45:00,60.2,31.8,30.06,SSE,151,7.0,15.0,34,0.00,,---,0.00,VWS V14.00,2013-03-07 23:45:00,
2013-03-07 17:48:00,63.2,32.9,30.06,SSE,157,10.0,18.0,32,0.00,,---,0.00,VWS V14.00,2013-03-07 23:48:00,
2013-03-07 17:50:00,59.9,32.2,30.07,SSE,150,5.0,13.0,35,0.00,,---,0.00,VWS V14.00,2013-03-07 23:50:00,
2013-03-07 17:53:00,63.0,32.7,30.05,SE,142,9.0,17.0,32,0.00,,---,0.00,VWS V14.00,2013-03-07 23:53:00,
2013-03-07 17:55:00,59.7,32.0,30.06,SE,145,11.0,15.0,35,0.00,,---,0.00,VWS V14.00,2013-03-07 23:55:00,
2013-03-07 17:58:00,62.7,32.4,30.06,SSE,147,14.0,17.0,32,0.00,,---,0.00,VWS V14.00,2013-03-07 23:58:00,
2013-03-07 18:00:00,59.5,31.9,30.06,SE,134,10.0,14.0,35,0.00,,---,0.00,VWS V14.00,2013-03-08 00:00:00,
2013-03-07 18:03:00,62.5,32.3,30.06,SSE,148,10.0,14.0,32,0.00,,---,0.00,VWS V14.00,2013-03-08 00:03:00,
2013-03-07 18:05:00,59.3,31.7,30.06,SE,141,11.0,14.0,35,0.00,,---,0.00,VWS V14.00,2013-03-08 00:05:00,
2013-03-07 18:08:00,62.2,32.0,30.06,SSE,149,11.0,16.0,32,0.00,,---,0.00,VWS V14.00,2013-03-08 00:08:00,
2013-03-07 18:10:00,59.1,31.5,30.06,SE,135,6.0,14.0,35,0.00,,---,0.00,VWS V14.00,2013-03-08 00:10:00,
2013-03-07 18:13:00,61.9,32.5,30.06,SE,144,6.0,11.0,33,0.00,,---,0.00,VWS V14.00,2013-03-08 00:13:00,
2013-03-07 18:15:00,59.0,32.1,30.06,SSE,152,6.0,13.0,36,0.00,,---,0.00,VWS V14.00,2013-03-08 00:15:00,
2013-03-07 18:18:00,61.6,32.2,30.06,SE,144,9.0,12.0,33,0.00,,---,0.00,VWS V14.00,2013-03-08 00:18:00,
2013-03-07 18:20:00,59.0,32.1,30.06,SE,142,9.0,12.0,36,0.00,,---,0.00,VWS V14.00,2013-03-08 00:20:00,
2013-03-07 18:23:00,61.2,31.9,30.06,SSE,154,6.0,15.0,33,0.00,,---,0.00,VWS V14.00,2013-03-08 00:23:00,
2013-03-07 18:25:00,58.7,31.8,30.06,SE,141,8.0,12.0,36,0.00,,---,0.00,VWS V14.00,2013-03-08 00:25:00,
2013-03-07 18:28:00,61.0,31.7,30.07,SSE,166,13.0,13.0,33,0.00,,---,0.00,VWS V14.00,2013-03-08 00:28:00,
2013-03-07 18:30:00,58.5,31.7,30.06,SE,136,6.0,12.0,36,0.00,,---,0.00,VWS V14.00,2013-03-08 00:30:00,
2013-03-07 18:33:00,60.6,32.1,30.06,SSE,151,9.0,14.0,34,0.00,,---,0.00,VWS V14.00,2013-03-08 00:33:00,
2013-03-07 18:35:00,58.2,32.1,30.06,SE,136,6.0,12.0,37,0.00,,---,0.00,VWS V14.00,2013-03-08 00:35:00,
2013-03-07 18:38:00,60.4,31.9,30.06,SSE,158,10.0,16.0,34,0.00,,---,0.00,VWS V14.00,2013-03-08 00:38:00,
2013-03-07 18:40:00,57.8,31.7,30.06,SE,129,6.0,11.0,37,0.00,,---,0.00,VWS V14.00,2013-03-08 00:40:00,
2013-03-07 18:43:00,60.2,31.8,30.06,SE,142,5.0,15.0,34,0.00,,---,0.00,VWS V14.00,2013-03-08 00:43:00,
2013-03-07 18:45:00,57.5,32.1,30.07,SE,132,7.0,10.0,38,0.00,,---,0.00,VWS V14.00,2013-03-08 00:45:00,
2013-03-07 18:48:00,60.0,31.6,30.07,SE,138,7.0,13.0,34,0.00,,---,0.00,VWS V14.00,2013-03-08 00:48:00,
2013-03-07 18:50:00,57.1,31.8,30.07,SE,125,9.0,12.0,38,0.00,,---,0.00,VWS V14.00,2013-03-08 00:50:00,
2013-03-07 18:53:00,59.8,32.1,30.06,SE,136,8.0,15.0,35,0.00,,---,0.00,VWS V14.00,2013-03-08 00:53:00,
2013-03-07 18:55:00,56.8,32.1,30.07,SE,139,7.0,12.0,39,0.00,,---,0.00,VWS V14.00,2013-03-08 00:55:00,
2013-03-07 18:58:00,59.6,31.9,30.06,SE,139,6.0,14.0,35,0.00,,---,0.00,VWS V14.00,2013-03-08 00:58:00,
2013-03-07 19:00:00,56.5,32.5,30.07,SE,135,10.0,12.0,40,0.00,,---,0.00,VWS V14.00,2013-03-08 01:00:00,
2013-03-07 19:03:00,59.4,31.8,30.06,SE,146,11.0,14.0,35,0.00,,---,0.00,VWS V14.00,2013-03-08 01:03:00,
2013-03-07 19:05:00,56.3,32.3,30.07,SE,140,6.0,14.0,40,0.00,,---,0.00,VWS V14.00,2013-03-08 01:05:00,
2013-03-07 19:08:00,59.1,31.5,30.06,SE,135,11.0,14.0,35,0.00,,---,0.00,VWS V14.00,2013-03-08 01:08:00,
2013-03-07 19:10:00,56.1,32.1,30.07,SE,134,8.0,12.0,40,0.00,,---,0.00,VWS V14.00,2013-03-08 01:10:00,
2013-03-07 19:13:00,59.0,32.1,30.06,SSE,154,10.0,13.0,36,0.00,,---,0.00,VWS V14.00,2013-03-08 01:13:00,
2013-03-07 19:15:00,56.0,32.7,30.07,SE,138,8.0,15.0,41,0.00,,---,0.00,VWS V14.00,2013-03-08 01:15:00,
2013-03-07 19:18:00,59.0,32.1,30.06,SSE,150,6.0,12.0,36,0.00,,---,0.00,VWS V14.00,2013-03-08 01:18:00,
2013-03-07 19:20:00,56.0,32.0,30.08,SE,142,13.0,16.0,40,0.00,,---,0.00,VWS V14.00,2013-03-08 01:20:00,
2013-03-07 19:23:00,58.7,31.8,30.06,SE,140,10.0,12.0,36,0.00,,---,0.00,VWS V14.00,2013-03-08 01:23:00,
2013-03-07 19:25:00,56.0,32.0,30.08,SSE,148,9.0,15.0,40,0.00,,---,0.00,VWS V14.00,2013-03-08 01:25:00,
2013-03-07 19:28:00,58.5,31.7,30.06,SE,138,8.0,12.0,36,0.00,,---,0.00,VWS V14.00,2013-03-08 01:28:00,
2013-03-07 19:30:00,56.0,32.0,30.08,SE,138,7.0,13.0,40,0.00,,---,0.00,VWS V14.00,2013-03-08 01:30:00,
2013-03-07 19:33:00,58.2,32.1,30.06,SE,136,6.0,12.0,37,0.00,,---,0.00,VWS V14.00,2013-03-08 01:33:00,
2013-03-07 19:35:00,56.0,32.0,30.08,SE,142,6.0,15.0,40,0.00,,---,0.00,VWS V14.00,2013-03-08 01:35:00,
2013-03-07 19:38:00,57.9,31.8,30.06,SE,129,7.0,11.0,37,0.00,,---,0.00,VWS V14.00,2013-03-08 01:38:00,
2013-03-07 19:40:00,55.8,32.5,30.08,SE,142,10.0,12.0,41,0.00,,---,0.00,VWS V14.00,2013-03-08 01:40:00,
2013-03-07 19:43:00,57.5,32.1,30.07,SE,129,5.0,10.0,38,0.00,,---,0.00,VWS V14.00,2013-03-08 01:43:00,
2013-03-07 19:45:00,55.7,32.4,30.08,SE,140,6.0,14.0,41,0.00,,---,0.00,VWS V14.00,2013-03-08 01:45:00,
2013-03-07 19:48:00,57.2,31.8,30.07,ESE,123,7.0,11.0,38,0.00,,---,0.00,VWS V14.00,2013-03-08 01:48:00,
2013-03-07 19:50:00,55.5,32.2,30.09,SSE,148,7.0,13.0,41,0.00,,---,0.00,VWS V14.00,2013-03-08 01:50:00,
2013-03-07 19:53:00,56.9,32.2,30.07,SE,138,5.0,12.0,39,0.00,,---,0.00,VWS V14.00,2013-03-08 01:53:00,
2013-03-07 19:55:00,55.4,32.1,30.08,SE,138,9.0,13.0,41,0.00,,---,0.00,VWS V14.00,2013-03-08 01:55:00,
2013-03-07 19:59:00,56.6,32.0,30.07,SE,136,6.0,12.0,39,0.00,,---,0.00,VWS V14.00,2013-03-08 01:59:00,
2013-03-07 20:00:00,55.3,32.0,30.08,SSE,153,4.0,14.0,41,0.00,,---,0.00,VWS V14.00,2013-03-08 02:00:00,
2013-03-07 20:04:00,56.3,32.3,30.07,SE,139,7.0,14.0,40,0.00,,---,0.00,VWS V14.00,2013-03-08 02:04:00,
2013-03-07 20:05:00,55.1,32.4,30.09,SE,146,5.0,12.0,42,0.00,,---,0.00,VWS V14.00,2013-03-08 02:05:00,
2013-03-07 20:09:00,56.1,32.1,30.07,SE,132,11.0,12.0,40,0.00,,---,0.00,VWS V14.00,2013-03-08 02:09:00,
2013-03-07 20:10:00,54.9,32.3,30.08,SE,144,9.0,13.0,42,0.00,,---,0.00,VWS V14.00,2013-03-08 02:10:00,
2013-03-07 20:14:00,56.0,32.7,30.07,SE,138,6.0,15.0,41,0.00,,---,0.00,VWS V14.00,2013-03-08 02:14:00,
2013-03-07 20:15:00,54.8,32.2,30.08,SE,138,10.0,12.0,42,0.00,,---,0.00,VWS V14.00,2013-03-08 02:15:00,
2013-03-07 20:19:00,56.0,32.0,30.08,SE,139,10.0,16.0,40,0.00,,---,0.00,VWS V14.00,2013-03-08 02:19:00,
2013-03-07 20:20:00,54.8,32.2,30.08,SE,138,7.0,13.0,42,0.00,,---,0.00,VWS V14.00,2013-03-08 02:20:00,
2013-03-07 20:24:00,56.1,32.1,30.08,SSE,148,8.0,15.0,40,0.00,,---,0.00,VWS V14.00,2013-03-08 02:24:00,
2013-03-07 20:25:00,54.8,32.2,30.08,SE,135,10.0,15.0,42,0.00,,---,0.00,VWS V14.00,2013-03-08 02:25:00,
2013-03-07 20:29:00,56.0,32.0,30.08,SSE,155,12.0,13.0,40,0.00,,---,0.00,VWS V14.00,2013-03-08 02:29:00,
2013-03-07 20:30:00,54.7,32.1,30.08,SE,139,11.0,13.0,42,0.00,,---,0.00,VWS V14.00,2013-03-08 02:30:00,
2013-03-07 20:34:00,56.0,32.0,30.08,SE,142,6.0,15.0,40,0.00,,---,0.00,VWS V14.00,2013-03-08 02:34:00,
2013-03-07 20:35:00,54.6,32.0,30.08,SE,136,8.0,17.0,42,0.00,,---,0.00,VWS V14.00,2013-03-08 02:35:00,
2013-03-07 20:39:00,55.8,32.5,30.08,SE,142,10.0,12.0,41,0.00,,---,0.00,VWS V14.00,2013-03-08 02:39:00,
2013-03-07 20:40:00,54.6,32.0,30.08,SE,142,8.0,12.0,42,0.00,,---,0.00,VWS V14.00,2013-03-08 02:40:00,
2013-03-07 20:44:00,55.7,32.4,30.08,SE,140,6.0,14.0,41,0.00,,---,0.00,VWS V14.00,2013-03-08 02:44:00,
2013-03-07 20:45:00,54.5,31.9,30.08,SE,140,4.0,13.0,42,0.00,,---,0.00,VWS V14.00,2013-03-08 02:45:00,
2013-03-07 20:49:00,55.5,32.2,30.09,SSE,148,7.0,13.0,41,0.00,,---,0.00,VWS V14.00,2013-03-08 02:49:00,
2013-03-07 20:50:00,54.3,31.7,30.08,SE,139,9.0,12.0,42,0.00,,---,0.00,VWS V14.00,2013-03-08 02:50:00,
2013-03-07 20:54:00,55.4,32.1,30.08,SE,138,9.0,13.0,41,0.00,,---,0.00,VWS V14.00,2013-03-08 02:54:00,
2013-03-07 20:55:00,54.1,32.1,30.08,SE,137,9.0,11.0,43,0.00,,---,0.00,VWS V14.00,2013-03-08 02:55:00,
2013-03-07 20:59:00,55.3,32.0,30.08,SSE,153,5.0,14.0,41,0.00,,---,0.00,VWS V14.00,2013-03-08 02:59:00,
2013-03-07 21:00:00,53.9,31.9,30.09,SE,137,7.0,10.0,43,0.00,,---,0.00,VWS V14.00,2013-03-08 03:00:00,
2013-03-07 21:04:00,55.1,32.4,30.09,SE,146,5.0,12.0,42,0.00,,---,0.00,VWS V14.00,2013-03-08 03:04:00,
2013-03-07 21:05:00,53.7,31.8,30.09,SE,143,7.0,11.0,43,0.00,,---,0.00,VWS V14.00,2013-03-08 03:05:00,
2013-03-07 21:09:00,54.9,32.3,30.08,SE,144,9.0,13.0,42,0.00,,---,0.00,VWS V14.00,2013-03-08 03:09:00,
2013-03-07 21:10:00,53.5,31.6,30.09,SE,136,7.0,12.0,43,0.00,,---,0.00,VWS V14.00,2013-03-08 03:10:00,
2013-03-07 21:14:00,54.8,32.2,30.08,SE,143,9.0,12.0,42,0.00,,---,0.00,VWS V14.00,2013-03-08 03:14:00,
2013-03-07 21:15:00,53.5,32.1,30.09,SE,140,7.0,11.0,44,0.00,,---,0.00,VWS V14.00,2013-03-08 03:15:00,
2013-03-07 21:19:00,54.8,32.2,30.08,SE,138,6.0,13.0,42,0.00,,---,0.00,VWS V14.00,2013-03-08 03:19:00,
2013-03-07 21:20:00,53.4,32.0,30.09,SE,136,6.0,11.0,44,0.00,,---,0.00,VWS V14.00,2013-03-08 03:20:00,
2013-03-07 21:24:00,54.8,32.2,30.08,SE,138,10.0,15.0,42,0.00,,---,0.00,VWS V14.00,2013-03-08 03:24:00,
2013-03-07 21:25:00,53.2,32.4,30.09,SE,137,7.0,11.0,45,0.00,,---,0.00,VWS V14.00,2013-03-08 03:25:00,
2013-03-07 21:29:00,54.7,32.1,30.08,SSE,154,11.0,13.0,42,0.00,,---,0.00,VWS V14.00,2013-03-08 03:29:00,
2013-03-07 21:30:00,53.0,32.2,30.09,SE,135,7.0,10.0,45,0.00,,---,0.00,VWS V14.00,2013-03-08 03:30:00,
2013-03-07 21:34:00,54.6,32.0,30.08,SE,136,8.0,17.0,42,0.00,,---,0.00,VWS V14.00,2013-03-08 03:34:00,
2013-03-07 21:35:00,52.8,32.1,30.09,SE,134,6.0,12.0,45,0.00,,---,0.00,VWS V14.00,2013-03-08 03:35:00,
2013-03-07 21:39:00,54.6,32.0,30.08,SE,142,9.0,12.0,42,0.00,,---,0.00,VWS V14.00,2013-03-08 03:39:00,
2013-03-07 21:40:00,52.6,32.4,30.09,SE,136,9.0,11.0,46,0.00,,---,0.00,VWS V14.00,2013-03-08 03:40:00,
2013-03-07 21:44:00,54.5,31.9,30.08,SE,140,7.0,13.0,42,0.00,,---,0.00,VWS V14.00,2013-03-08 03:44:00,
2013-03-07 21:45:00,52.5,32.3,30.09,SE,134,11.0,13.0,46,0.00,,---,0.00,VWS V14.00,2013-03-08 03:45:00,
2013-03-07 21:49:00,54.3,31.7,30.08,SE,139,9.0,12.0,42,0.00,,---,0.00,VWS V14.00,2013-03-08 03:49:00,
2013-03-07 21:50:00,52.5,32.3,30.09,SE,133,10.0,17.0,46,0.00,,---,0.00,VWS V14.00,2013-03-08 03:50:00,
2013-03-07 21:54:00,54.1,32.1,30.08,SE,137,9.0,11.0,43,0.00,,---,0.00,VWS V14.00,2013-03-08 03:54:00,
2013-03-07 21:55:00,52.5,32.3,30.09,SE,124,10.0,14.0,46,0.00,,---,0.00,VWS V14.00,2013-03-08 03:55:00,
2013-03-07 21:59:00,53.9,31.9,30.09,SE,138,7.0,10.0,43,0.00,,---,0.00,VWS V14.00,2013-03-08 03:59:00,
2013-03-07 22:00:00,52.5,32.3,30.09,SE,136,9.0,14.0,46,0.00,,---,0.00,VWS V14.00,2013-03-08 04:00:00,
2013-03-07 22:04:00,53.7,31.8,30.09,SE,143,8.0,11.0,43,0.00,,---,0.00,VWS V14.00,2013-03-08 04:04:00,
2013-03-07 22:05:00,52.4,32.2,30.09,SE,136,11.0,12.0,46,0.00,,---,0.00,VWS V14.00,2013-03-08 04:05:00,
2013-03-07 22:09:00,53.5,31.6,30.09,SE,136,7.0,12.0,43,0.00,,---,0.00,VWS V14.00,2013-03-08 04:09:00,
2013-03-07 22:10:00,52.3,32.2,30.09,SE,144,11.0,14.0,46,0.00,,---,0.00,VWS V14.00,2013-03-08 04:10:00,
2013-03-07 22:14:00,53.5,32.1,30.09,SE,140,7.0,11.0,44,0.00,,---,0.00,VWS V14.00,2013-03-08 04:14:00,
2013-03-07 22:15:00,52.2,32.1,30.09,SE,131,12.0,14.0,46,0.00,,---,0.00,VWS V14.00,2013-03-08 04:15:00,
2013-03-07 22:19:00,53.4,32.0,30.09,SE,136,6.0,11.0,44,0.00,,---,0.00,VWS V14.00,2013-03-08 04:19:00,
2013-03-07 22:20:00,52.1,32.5,30.09,SE,136,12.0,13.0,47,0.00,,---,0.00,VWS V14.00,2013-03-08 04:20:00,
2013-03-07 22:24:00,53.2,32.4,30.09,SE,137,7.0,11.0,45,0.00,,---,0.00,VWS V14.00,2013-03-08 04:24:00,
2013-03-07 22:25:00,52.0,31.9,30.09,SE,135,8.0,14.0,46,0.00,,---,0.00,VWS V14.00,2013-03-08 04:25:00,
2013-03-07 22:29:00,53.0,32.2,30.09,SE,135,6.0,10.0,45,0.00,,---,0.00,VWS V14.00,2013-03-08 04:29:00,
2013-03-07 22:30:00,51.9,32.3,30.09,SE,138,12.0,15.0,47,0.00,,---,0.00,VWS V14.00,2013-03-08 04:30:00,
2013-03-07 22:34:00,52.8,32.1,30.09,SE,134,8.0,12.0,45,0.00,,---,0.00,VWS V14.00,2013-03-08 04:34:00,
2013-03-07 22:35:00,51.8,32.2,30.09,SE,134,10.0,13.0,47,0.00,,---,0.00,VWS V14.00,2013-03-08 04:35:00,
2013-03-07 22:39:00,52.6,32.4,30.09,SE,136,10.0,11.0,46,0.00,,---,0.00,VWS V14.00,2013-03-08 04:39:00,
2013-03-07 22:40:00,51.7,32.1,30.09,SE,140,9.0,15.0,47,0.00,,---,0.00,VWS V14.00,2013-03-08 04:40:00,
2013-03-07 22:44:00,52.5,32.3,30.09,SE,134,11.0,13.0,46,0.00,,---,0.00,VWS V14.00,2013-03-08 04:44:00,
2013-03-07 22:45:00,51.6,32.6,30.09,SE,136,10.0,15.0,48,0.00,,---,0.00,VWS V14.00,2013-03-08 04:45:00,
2013-03-07 22:49:00,52.5,32.3,30.09,SE,134,11.0,17.0,46,0.00,,---,0.00,VWS V14.00,2013-03-08 04:49:00,
2013-03-07 22:50:00,51.5,32.0,30.09,SE,139,10.0,13.0,47,0.00,,---,0.00,VWS V14.00,2013-03-08 04:50:00,
2013-03-07 22:54:00,52.5,32.3,30.09,SE,124,10.0,14.0,46,0.00,,---,0.00,VWS V14.00,2013-03-08 04:54:00,
2013-03-07 22:55:00,51.4,32.4,30.09,SE,136,9.0,12.0,48,0.00,,---,0.00,VWS V14.00,2013-03-08 04:55:00,
2013-03-07 22:59:00,52.5,32.3,30.09,SE,136,7.0,9.0,46,0.00,,---,0.00,VWS V14.00,2013-03-08 04:59:00,
2013-03-07 23:00:00,52.5,32.3,30.09,SE,136,7.0,10.0,46,0.00,,---,0.00,VWS V14.00,2013-03-08 05:00:00,
2013-03-07 23:01:00,52.5,32.3,30.09,SE,129,9.0,12.0,46,0.00,,---,0.00,VWS V14.00,2013-03-08 05:01:00,
2013-03-07 23:05:00,51.1,32.6,30.09,SE,136,6.0,12.0,49,0.00,,---,0.00,VWS V14.00,2013-03-08 05:05:00,
2013-03-07 23:06:00,52.4,32.2,30.09,SE,132,12.0,12.0,46,0.00,,---,0.00,VWS V14.00,2013-03-08 05:06:00,
2013-03-07 23:10:00,50.9,32.4,30.09,SE,132,5.0,12.0,49,0.00,,---,0.00,VWS V14.00,2013-03-08 05:10:00,
2013-03-07 23:11:00,52.3,32.2,30.09,SE,128,12.0,14.0,46,0.00,,---,0.00,VWS V14.00,2013-03-08 05:11:00,
2013-03-07 23:15:00,50.7,32.2,30.09,SE,134,9.0,11.0,49,0.00,,---,0.00,VWS V14.00,2013-03-08 05:15:00,
2013-03-07 23:16:00,52.2,32.1,30.09,SE,132,10.0,13.0,46,0.00,,---,0.00,VWS V14.00,2013-03-08 05:16:00,
2013-03-07 23:20:00,50.6,32.2,30.09,SE,137,7.0,11.0,49,0.00,,---,0.00,VWS V14.00,2013-03-08 05:20:00,
2013-03-07 23:21:00,52.0,31.9,30.09,SE,135,11.0,14.0,46,0.00,,---,0.00,VWS V14.00,2013-03-08 05:21:00,
2013-03-07 23:25:00,50.6,32.2,30.09,SE,136,10.0,15.0,49,0.00,,---,0.00,VWS V14.00,2013-03-08 05:25:00,
2013-03-07 23:26:00,51.9,32.3,30.09,SE,138,11.0,14.0,47,0.00,,---,0.00,VWS V14.00,2013-03-08 05:26:00,
2013-03-07 23:30:00,50.5,32.1,30.09,SE,142,10.0,13.0,49,0.00,,---,0.00,VWS V14.00,2013-03-08 05:30:00,
2013-03-07 23:31:00,51.9,32.3,30.09,SE,134,7.0,13.0,47,0.00,,---,0.00,VWS V14.00,2013-03-08 05:31:00,
2013-03-07 23:35:00,50.5,32.6,30.09,SE,134,6.0,11.0,50,0.00,,---,0.00,VWS V14.00,2013-03-08 05:35:00,
2013-03-07 23:36:00,51.8,32.2,30.09,SE,141,7.0,13.0,47,0.00,,---,0.00,VWS V14.00,2013-03-08 05:36:00,
2013-03-07 23:40:00,50.3,32.4,30.09,SE,134,10.0,12.0,50,0.00,,---,0.00,VWS V14.00,2013-03-08 05:40:00,
2013-03-07 23:41:00,51.7,32.1,30.09,SE,132,13.0,15.0,47,0.00,,---,0.00,VWS V14.00,2013-03-08 05:41:00,
2013-03-07 23:45:00,50.2,32.3,30.09,SE,133,8.0,14.0,50,0.00,,---,0.00,VWS V14.00,2013-03-08 05:45:00,
2013-03-07 23:46:00,51.5,32.0,30.09,SE,128,11.0,13.0,47,0.00,,---,0.00,VWS V14.00,2013-03-08 05:46:00,
2013-03-07 23:50:00,50.1,32.7,30.09,SE,131,6.0,12.0,51,0.00,,---,0.00,VWS V14.00,2013-03-08 05:50:00,
2013-03-07 23:51:00,51.5,32.5,30.09,SE,138,8.0,12.0,48,0.00,,---,0.00,VWS V14.00,2013-03-08 05:51:00,
2013-03-07 23:55:00,50.1,32.7,30.09,SE,132,6.0,13.0,51,0.00,,---,0.00,VWS V14.00,2013-03-08 05:55:00,
2013-03-07 23:56:00,51.3,32.3,30.09,SE,138,7.0,13.0,48,0.00,,---,0.00,VWS V14.00,2013-03-08 05:56:00,